Flag for U.S.A. Weather past 2 weeks in Leesburg, Virginia, U.S.A.

Now
77 °F

Scattered clouds.


Feels Like: 78 °F
Forecast: 70 / 89 °F
Wind: No wind

Location: Leesburg / Godfrey

Current Time: Sep 4, 2015 at 7:55:54 PM

Latest Report: Sep 4, 2015 at 7:15 PM


Visibility: 10 mi

Pressure: 30.07 "Hg

Humidity: 89%

Dew point: 73 °F

Location of LeesburgLocation

Historic Weather in Leesburg — Graph

°F

Leesburg temperature yesterday

Maximum temperature yesterday: 93 °F (at 2:35 PM)
Minimum temperature yesterday: 70 °F (at 2:15 AM)
Average temperature yesterday: 81 °F

Past Weeks' High & Low Weather Summary

 TemperatureHumidityPressure
High93 °F (Sep 2, 2:15 PM)100% (Aug 20, 6:55 PM)30.24 "Hg (Aug 20, 6:55 PM)
Low57 °F (Aug 23, 6:15 AM)37% (Aug 21, 3:15 PM)29.83 "Hg (Aug 24, 3:35 PM)
Average75 °F75%30.05 "Hg
* Reported Aug 20 6:55 PM — Sep 4 6:55 PM, Leesburg, Weather by CustomWeather, © 2015

Note: Actual official high and low records may vary slightly from our data, if they occured in-between our weather recording intervals... More about our weather records

Advertising

Leesburg weather history for previous 24 hours

 ConditionsComfort  
Time TempWeatherWind HumidityBarometerVisibility
6:55 PM
Fri, Sep 4
79 °FSunny.9 mph84%30.06 "Hg10 mi
6:15 PM79 °FSunny.5 mph79%30.06 "Hg10 mi
5:15 PM77 °FScattered clouds.3 mph83%30.04 "Hg10 mi
4:55 PM77 °FScattered clouds.6 mph83%30.04 "Hg10 mi
4:35 PM77 °FScattered clouds.5 mph83%30.04 "Hg10 mi
4:15 PM77 °FBroken clouds.8 mph83%30.05 "Hg10 mi
3:55 PM79 °FSunny.9 mph84%30.04 "Hg10 mi
3:35 PM79 °FSunny.3 mph79%30.04 "Hg10 mi
3:15 PM77 °FThundershowers. Sunny.6 mph83%30.03 "Hg10 mi
2:55 PM77 °FScattered clouds.8 mph89%30.03 "Hg10 mi
2:35 PM77 °FThundershowers. More clouds than sun.8 mph83%30.04 "Hg10 mi
2:15 PM79 °FThunderstorms. Cloudy.9 mph79%30.05 "Hg10 mi
1:55 PM81 °FThunderstorms. Mostly cloudy.10 mph74%30.04 "Hg10 mi
1:35 PM86 °FThunderstorms. Mostly cloudy.9 mph62%30.03 "Hg10 mi
1:15 PM90 °FPartly sunny.No wind55%30.03 "Hg10 mi
12:55 PM90 °FScattered clouds.3 mph55%30.04 "Hg10 mi
12:35 PM90 °FSunny.No wind55%30.05 "Hg10 mi
12:15 PM90 °FSunny.3 mph55%30.05 "Hg10 mi
11:55 AM90 °FSunny.5 mph59%30.05 "Hg10 mi
11:35 AM88 °FSunny.7 mph59%30.05 "Hg10 mi
11:15 AM86 °FSunny.5 mph62%30.05 "Hg10 mi
10:55 AM86 °FSunny.9 mph62%30.05 "Hg10 mi
10:35 AM86 °FSunny.6 mph62%30.04 "Hg10 mi
10:15 AM82 °FSunny.6 mph70%30.04 "Hg10 mi
9:55 AM82 °FSunny.6 mph70%30.03 "Hg10 mi
9:35 AM81 °FSunny.6 mph74%30.03 "Hg10 mi
9:15 AM81 °FSunny.7 mph74%30.03 "Hg10 mi
8:55 AM81 °FSunny.8 mph74%30.03 "Hg10 mi
8:35 AM79 °FSunny.7 mph79%30.03 "Hg10 mi
8:15 AM77 °FSunny.12 mph89%30.03 "Hg7 mi
7:55 AM75 °FSunny.10 mph89%30.02 "Hg7 mi
7:35 AM73 °FClear.12 mph94%30.01 "Hg7 mi
7:15 AM72 °FClear.10 mph100%30.01 "Hg7 mi
6:55 AM72 °FClear.9 mph94%30.00 "Hg7 mi
6:35 AM72 °FClear.8 mph94%29.98 "Hg7 mi
6:15 AM72 °FClear.7 mph100%29.97 "Hg10 mi
5:55 AM73 °FClear.6 mph94%29.96 "Hg10 mi
5:35 AM72 °FClear.7 mph100%29.96 "Hg7 mi
5:15 AM72 °FClear.7 mph94%29.96 "Hg10 mi
4:55 AM72 °FClear.8 mph100%29.95 "Hg10 mi
4:35 AM72 °FClear.12 mph100%29.95 "Hg10 mi
4:15 AM72 °FClear.7 mph100%29.95 "Hg10 mi
3:55 AM73 °FClear.10 mph94%29.94 "Hg10 mi
3:15 AM73 °FClear.10 mph94%29.94 "Hg10 mi
2:55 AM73 °FClear.3 mph94%29.94 "Hg10 mi
2:35 AM72 °FClear.9 mph100%29.94 "Hg10 mi
2:15 AM73 °FClear.No wind94%29.93 "Hg10 mi
1:55 AM73 °FClear.3 mph94%29.94 "Hg10 mi
1:35 AM73 °FPassing clouds.9 mph94%29.93 "Hg10 mi
1:15 AM73 °FPassing clouds.No wind94%29.94 "Hg10 mi
12:55 AM75 °FPassing clouds.No wind89%29.94 "Hg10 mi
12:35 AM73 °FClear.No wind94%29.93 "Hg10 mi
11:55 PM
Thu, Sep 3
75 °FClear.7 mph89%29.93 "Hg10 mi
11:35 PM77 °FClear.No wind83%29.93 "Hg10 mi
11:15 PM77 °FClear.No wind83%29.93 "Hg10 mi
10:55 PM77 °FClear.3 mph83%29.93 "Hg10 mi
10:35 PM77 °FClear.3 mph83%29.93 "Hg10 mi
10:15 PM79 °FClear.12 mph79%29.93 "Hg10 mi
9:55 PM81 °FClear.10 mph74%29.93 "Hg10 mi
9:15 PM81 °FClear.3 mph74%29.92 "Hg10 mi
8:55 PM81 °FClear.5 mph74%29.92 "Hg10 mi
8:35 PM81 °FSunny.3 mph74%29.91 "Hg10 mi
8:15 PM82 °FSunny.3 mph70%29.90 "Hg10 mi
7:55 PM82 °FSunny.3 mph70%29.90 "Hg10 mi
7:35 PM82 °FSunny.6 mph70%29.89 "Hg10 mi
7:15 PM84 °FThundershowers. Sunny.No wind66%29.89 "Hg10 mi
Weather by CustomWeather, © 2015

See weather overviewHow to use our weather pages